Location: Stara Lesna
(49.1528°N, 20.2911°E)
Time: 09:22:03
(UTC+02:00)

Cosmos 1437 Rocket - Pass Details

Date: 13 July 2020
Orbit: 506 x 562 km, 81.2° (Epoch: 05 August)

Event Time Altitude Azimuth Distance (km) Brightness Sun altitude
Rises 02:38:57 0° 345° (NNW) 2,746 7.2 -14.6°
Reaches altitude 10° 02:41:09 10° 343° (NNW) 1,839 6.1 -14.5°
Maximum altitude 02:45:10 65° 262° (W) 605 2.8 -14.2°
Enters shadow 02:47:38 22° 185° (S) 1,227 4.0 -14.0°
